CZ-6A R/B

Last updated on Mon Aug 03 2026 00:02:04 GMT+0000 (Coordinated Universal Time)

1 69818U 26153U 26214.63365763 .00000292 00000+0 62823-4 0 9990 2 69818 89.0189 356.8050 0085534 25.1803 335.3538 14.53458337 4254
UTC large
Height (km)
Speed (km/s)
/
Latitude / Longitude
Inclination (degrees)
Orbital Period (minutes)
Azimuth
Elevation
Range (km)
Doppler Factor

Next 0 passes for location: London (51.5072 / 0.1276)

No passes found over London.
CZ-6A R/B